User: anonymous   Login
Location: Audinghen
(50.8518°N, 1.6129°E)
Time: 12:03:30
(UTC+00:00)
Language:

Nadezhda 4 Rocket - Orbit

View from above orbital plane
View from above orbital plane
View from above satellite
View from above satellite

Ground track
Ground track

The orbit data is extracted from the following two-line orbital elements,

1 23180U 94041B   20296.74875775 -.00000044 +00000-0 -58862-4 0  9994
2 23180 082.9425 100.5377 0029634 035.9488 335.3948 13.77980664321158
Epoch (UTC): 22 October 2020 17:58:12
Eccentricity: 0.0029634
inclination: 82.9425°
perigee height: 949 km
apogee height: 993 km
right ascension of ascending node: 100.5377°
argument of perigee: 35.9488°
revolutions per day: 13.77980664
mean anomaly at epoch: 335.3948°
orbit number at epoch: 32115

The dashed part of the orbit path shows where the satellite is in the earth's shadow,  

DLR